Marion, IN

9:44 PM EST on December 03, 2016 (GMT -0500)
Marion Municipal

Weather History for KMZZ - March, 2013

Change the Weather History Date:

Tuesday, March 5, 2013

  Actual Average (KMIE) Record (KMIE)
Temperature  
Mean Temperature 30 °F 35 °F  
Max Temperature 41 °F 44 °F 77 °F (1976)
Min Temperature 27 °F 27 °F 2 °F (1978)
Degree Days  
Heating Degree Days 35 30  
Month to date heating degree days 152  
Since 1 July heating degree days 4535  
Cooling Degree Days 0 0  
Month to date cooling degree days 0  
Year to date cooling degree days 0  
Moisture  
Dew Point 29 °F    
Average Humidity 89    
Maximum Humidity 96    
Minimum Humidity 79    
Precipitation  
Precipitation 0.22 in 0.08 in 1.48 in (2011)
Month to date precipitation 0.42  
Year to date precipitation 4.96  
Sea Level Pressure  
Sea Level Pressure 29.81 in    
Wind  
Wind Speed 12 mph (ENE)    
Max Wind Speed 20 mph    
Max Gust Speed 23 mph    
Visibility 5 miles    
Events Snow    
T = Trace of Precipitation, MM = Missing Value Source: NWS Daily Summary

Daily Weather History Graph

Daily Weather History Graph

Search for Another Location

Airport or City:

Trip Planner

Search our weather history database for the weather conditions in past years. The results will help you decide how hot, cold, wet, or windy it might be!

Date:

Astronomy

Mar. 05, 2013 Rise Set
Actual Time 7:09 AM EST 6:38 PM EST
Civil Twilight 6:42 AM EST 7:06 PM EST
Nautical Twilight 6:11 AM EST 7:37 PM EST
Astronomical Twilight 5:39 AM EST 8:09 PM EST
Moon 2:22 AM EST (3/5) 12:16 PM EST (3/5)
Length of Visible Light 12h 23m
Length of Day
11h 29m
Last Quarter, 41% of the Moon is Illuminated
Mar 5
Last Quarter
Mar 11
New
Mar 19
First Quarter
Mar 27
Full
Apr 3
Last Quarter

Hourly Weather History & Observations

Time (EST) Temp. Windchill Dew Point Humidity Pressure Visibility Wind Dir Wind Speed Gust Speed Precip Events Conditions
12:15 AM 31.1 °F 22.4 °F 29.3 °F 93% 30.01 in 7.0 mi East 10.4 mph - N/A   Overcast
12:35 AM 31.5 °F 23.5 °F 29.3 °F 92% 30.00 in 10.0 mi East 9.2 mph - N/A   Overcast
12:55 AM 31.6 °F 23.7 °F 29.1 °F 90% 30.00 in 7.0 mi East 9.2 mph - N/A   Overcast
1:15 AM 31.6 °F 24.4 °F 29.1 °F 90% 30.00 in 10.0 mi East 8.1 mph - N/A   Overcast
1:35 AM 31.8 °F 24.6 °F 29.1 °F 90% 29.99 in 10.0 mi East 8.1 mph - N/A   Overcast
1:55 AM 31.6 °F 23.7 °F 28.9 °F 90% 29.99 in 7.0 mi East 9.2 mph - N/A   Overcast
2:15 AM 31.6 °F 23.1 °F 28.9 °F 90% 29.98 in 7.0 mi East 10.4 mph - N/A   Overcast
2:35 AM 31.6 °F 22.6 °F 29.1 °F 90% 29.97 in 7.0 mi East 11.5 mph - N/A   Overcast
2:55 AM 31.6 °F 23.1 °F 29.1 °F 90% 29.96 in 7.0 mi East 10.4 mph - N/A   Overcast
3:15 AM 31.6 °F 22.6 °F 29.1 °F 90% 29.95 in 7.0 mi East 11.5 mph - N/A   Overcast
3:35 AM 31.6 °F 23.1 °F 28.9 °F 90% 29.95 in 7.0 mi East 10.4 mph - N/A   Overcast
3:55 AM 31.6 °F 21.6 °F 28.9 °F 90% 29.94 in 7.0 mi East 13.8 mph - N/A   Overcast
4:15 AM 31.8 °F 22.3 °F 28.8 °F 88% 29.94 in 10.0 mi East 12.7 mph - N/A   Overcast
4:35 AM 31.8 °F 21.4 °F 28.6 °F 88% 29.93 in 10.0 mi East 15.0 mph 19.6 mph N/A   Overcast
4:55 AM 31.8 °F 21.8 °F 28.8 °F 88% 29.91 in 10.0 mi East 13.8 mph - N/A   Overcast
5:15 AM 31.8 °F 22.8 °F 28.8 °F 88% 29.91 in 10.0 mi East 11.5 mph - N/A   Overcast
5:35 AM 32.0 °F 22.5 °F 28.9 °F 88% 29.91 in 7.0 mi East 12.7 mph - N/A   Overcast
5:55 AM 31.8 °F 21.0 °F 29.1 °F 90% 29.91 in 5.0 mi East 16.1 mph - N/A   Overcast
6:15 AM 31.8 °F 21.8 °F 29.3 °F 90% 29.91 in 7.0 mi East 13.8 mph 21.9 mph N/A   Overcast
6:35 AM 31.8 °F 21.8 °F 29.7 °F 92% 29.91 in 7.0 mi East 13.8 mph 21.9 mph N/A   Overcast
6:55 AM 32.0 °F 22.1 °F 29.8 °F 92% 29.91 in 7.0 mi East 13.8 mph 17.3 mph N/A   Overcast
7:15 AM 32.0 °F 21.2 °F 29.8 °F 92% 29.91 in 7.0 mi East 16.1 mph 20.7 mph N/A   Overcast
7:35 AM 32.0 °F 22.1 °F 29.5 °F 90% 29.90 in 7.0 mi East 13.8 mph 20.7 mph N/A   Overcast
8:15 AM 32.0 °F 22.1 °F 29.3 °F 90% 29.89 in 7.0 mi East 13.8 mph 21.9 mph N/A   Overcast
8:35 AM 32.0 °F 21.2 °F 29.1 °F 89% 29.88 in 7.0 mi East 16.1 mph 23.0 mph N/A   Overcast
8:55 AM 32.0 °F 21.2 °F 28.9 °F 88% 29.88 in 7.0 mi East 16.1 mph - N/A   Overcast
9:15 AM 32.0 °F 21.6 °F 28.9 °F 88% 29.87 in 5.0 mi East 15.0 mph 21.9 mph N/A   Overcast
9:35 AM 32.2 °F 22.7 °F 28.9 °F 88% 29.86 in 7.0 mi East 12.7 mph 20.7 mph N/A   Overcast
9:55 AM 32.5 °F 23.2 °F 28.8 °F 86% 29.86 in 10.0 mi East 12.7 mph 20.7 mph N/A   Overcast
10:15 AM 32.9 °F 22.4 °F 28.6 °F 84% 29.85 in 10.0 mi East 16.1 mph - N/A   Overcast
10:35 AM 32.9 °F 23.2 °F 28.4 °F 84% 29.85 in 10.0 mi East 13.8 mph 21.9 mph N/A   Overcast
10:55 AM 32.9 °F 23.2 °F 28.2 °F 83% 29.84 in 7.0 mi East 13.8 mph 18.4 mph N/A   Overcast
11:15 AM 33.1 °F 23.4 °F 28.2 °F 82% 29.82 in 7.0 mi East 13.8 mph 21.9 mph N/A   Overcast
11:35 AM 33.8 °F 22.5 °F 28.2 °F 80% 29.81 in 7.0 mi East 19.6 mph 23.0 mph N/A   Overcast
11:55 AM 33.8 °F 23.5 °F 28.2 °F 80% 29.80 in 7.0 mi East 16.1 mph 21.9 mph N/A   Overcast
12:15 PM 33.8 °F 24.3 °F 28.0 °F 79% 29.79 in 10.0 mi East 13.8 mph - N/A   Overcast
12:35 PM 33.8 °F 23.9 °F 27.9 °F 79% 29.78 in 10.0 mi East 15.0 mph - N/A   Overcast
12:55 PM 33.3 °F 23.7 °F 27.7 °F 80% 29.77 in 5.0 mi East 13.8 mph - N/A Snow Light Snow
1:15 PM 33.1 °F 22.2 °F 27.9 °F 81% 29.76 in 4.0 mi East 17.3 mph 23.0 mph N/A Snow Light Snow
1:35 PM 32.9 °F 22.8 °F 28.0 °F 82% 29.74 in 5.0 mi East 15.0 mph - N/A   Haze
1:55 PM 32.9 °F 23.2 °F 28.2 °F 83% 29.74 in 7.0 mi East 13.8 mph 17.3 mph N/A   Overcast
2:15 PM 32.7 °F 22.5 °F 28.4 °F 84% 29.71 in 7.0 mi East 15.0 mph 20.7 mph N/A   Overcast
2:35 PM 32.7 °F 23.0 °F 28.9 °F 86% 29.70 in 5.0 mi East 13.8 mph 21.9 mph N/A   Overcast
2:55 PM 32.5 °F 22.3 °F 28.9 °F 87% 29.69 in 7.0 mi East 15.0 mph - N/A   Overcast
3:15 PM 32.5 °F 21.9 °F 28.6 °F 85% 29.68 in 7.0 mi East 16.1 mph 19.6 mph N/A   Overcast
3:35 PM 32.5 °F 21.9 °F 28.8 °F 86% 29.66 in 7.0 mi East 16.1 mph 23.0 mph N/A   Overcast
3:55 PM 32.5 °F 22.7 °F 28.9 °F 87% 29.66 in 5.0 mi East 13.8 mph 20.7 mph N/A   Overcast
4:15 PM 32.2 °F 23.8 °F 29.1 °F 88% 29.66 in 3.0 mi East 10.4 mph - N/A   Overcast
4:35 PM 32.0 °F 24.8 °F 29.5 °F 90% 29.66 in 1.8 mi East 8.1 mph - N/A Snow Light Snow
4:55 PM 32.0 °F 24.8 °F 30.0 °F 92% 29.66 in 1.0 mi ENE 8.1 mph - 0.03 in Snow Light Snow
5:15 PM 32.0 °F 26.4 °F 30.2 °F 93% 29.68 in 1.2 mi NE 5.8 mph - 0.01 in Snow Light Snow
5:35 PM 31.6 °F 25.1 °F 30.2 °F 94% 29.68 in 1.0 mi NE 6.9 mph - 0.04 in Snow Light Snow
5:55 PM 31.6 °F 26.0 °F 30.2 °F 94% 29.68 in 0.5 mi NNE 5.8 mph - 0.07 in Snow Light Snow
6:15 PM 31.3 °F 25.6 °F 30.2 °F 96% 29.68 in 0.5 mi NNE 5.8 mph - 0.02 in Snow Light Snow
6:35 PM 31.1 °F 23.7 °F 30.0 °F 96% 29.68 in 0.5 mi NNE 8.1 mph - 0.03 in Snow Light Snow
6:55 PM 31.1 °F 23.1 °F 30.0 °F 96% 29.68 in 1.0 mi NNE 9.2 mph - 0.05 in Snow Light Snow
7:15 PM 30.4 °F 21.5 °F 29.3 °F 96% 29.69 in 0.8 mi NNE 10.4 mph - 0.01 in Snow Light Snow
7:35 PM 29.3 °F 19.1 °F 28.0 °F 95% 29.70 in 1.0 mi NNE 12.7 mph - 0.01 in Snow Light Snow
7:55 PM 28.8 °F 20.9 °F 27.3 °F 94% 29.70 in 1.0 mi NNE 8.1 mph 12.7 mph 0.01 in Snow Light Snow
8:15 PM 28.6 °F 17.7 °F 27.1 °F 94% 29.70 in 1.8 mi North 13.8 mph - 0.01 in Snow Light Snow
8:35 PM 28.2 °F 18.3 °F 26.8 °F 94% 29.71 in 1.5 mi NNE 11.5 mph - 0.01 in   Overcast
8:55 PM 28.2 °F 16.3 °F 26.6 °F 94% 29.71 in 2.5 mi North 16.1 mph 20.7 mph 0.01 in Snow Light Snow
9:15 PM 27.7 °F 16.1 °F 26.2 °F 94% 29.71 in 1.8 mi North 15.0 mph - N/A   Overcast
9:35 PM 27.5 °F 20.2 °F 25.9 °F 94% 29.71 in 1.5 mi North 6.9 mph - 0.01 in Snow Light Snow
9:55 PM 27.5 °F 16.3 °F 26.2 °F 95% 29.72 in 1.5 mi NNE 13.8 mph - 0.01 in Snow Light Snow
10:15 PM 27.5 °F 18.6 °F 26.2 °F 95% 29.72 in 1.5 mi North 9.2 mph - N/A Snow Light Snow
10:35 PM 27.5 °F 18.0 °F 26.2 °F 95% 29.73 in 1.2 mi North 10.4 mph - 0.02 in Snow Light Snow
10:55 PM 27.5 °F 20.2 °F 26.2 °F 95% 29.73 in 1.2 mi North 6.9 mph - 0.03 in Snow Light Snow
11:15 PM 27.5 °F 15.4 °F 26.4 °F 96% 29.73 in 1.8 mi NNE 16.1 mph 19.6 mph 0.01 in Snow Light Snow
11:35 PM 28.0 °F 17.5 °F 26.6 °F 94% 29.74 in 2.0 mi North 12.7 mph 17.3 mph 0.01 in Snow Light Snow
11:55 PM 28.0 °F 16.1 °F 26.6 °F 94% 29.74 in 3.0 mi NNE 16.1 mph 23.0 mph 0.01 in Snow Light Snow